This demonstration page uses our WeatherBlox Daily Observations layout. Learn more.

Left ArrowRight Arrow

39.01783, -85.05884

Hourly Observations for October 17, 2018

Temp ( °F °C ) Dew Point ( °F °C ) Humidity (%) Winds ( mph kmh ) Pressure ( in mb ) Visibility ( mi km ) Precip ( " mm )
1:52 am 01:52 Mostly Clear 42 5.6 38 3.3 85 85 SW 7 11 30.20 1023 10 16 N/A
2:52 am 02:52 Mostly Clear 40 4.4 37 2.8 89 89 SSW 6 9 30.19 1023 10 16 N/A
3:52 am 03:52 Clear 40 4.4 38 3.3 93 93 SSW 8 13 30.17 1022 10 16 N/A
4:52 am 04:52 Clear 40 4.4 38 3.3 93 93 SW 7 11 30.18 1022 10 16 N/A
5:52 am 05:52 Clear 40 4.4 37 2.8 89 89 SSW 7 11 30.18 1022 10 16 N/A
6:52 am 06:52 Clear 39 3.9 37 2.8 93 93 SW 6 9 30.21 1023 10 16 N/A
7:52 am 07:52 Sunny 39 3.9 37 2.8 93 93 SSW 7 11 30.22 1023 8 13 N/A
8:52 am 08:52 Sunny 42 5.6 39 3.9 89 89 SW 7 11 30.23 1024 10 16 N/A
9:52 am 09:52 Sunny 47 8.3 40 4.4 77 77 W 8 13 30.26 1025 10 16 N/A
10:52 am 10:52 Sunny 50 10 41 5 71 71 W 10 17 30.25 1025 10 16 N/A
11:52 am 11:52 Sunny 55 12.8 41 5 59 59 W 9 15 30.26 1025 10 16 N/A
12:52 pm 12:52 Sunny 58 14.4 40 4.4 51 51 W 15 24 30.25 1024 10 16 N/A
1:52 pm 13:52 Mostly Sunny 60 15.6 38 3.3 44 44 W 16 26 30.23 1024 10 16 N/A
2:52 pm 14:52 Sunny 62 16.7 32 undefined 32 32 WNW 24 39 30.23 1024 10 16 N/A
3:52 pm 15:52 Mostly Sunny 61 16.1 31 -0.6 32 32 WNW 20 31 30.24 1024 10 16 N/A
4:52 pm 16:52 Mostly Sunny 60 15.6 31 -0.6 33 33 WNW 17 28 30.26 1025 10 16 N/A
5:52 pm 17:52 Mostly Sunny 57 13.9 31 -0.6 37 37 NW 13 20 30.28 1025 10 16 N/A
6:52 pm 18:52 Mostly Sunny 53 11.7 32 undefined 45 45 NW 12 19 30.31 1026 10 16 N/A
7:52 pm 19:52 Mostly Clear 50 10 33 0.6 52 52 NNW 9 15 30.35 1028 10 16 N/A
8:52 pm 20:52 Mostly Clear 49 9.4 33 0.6 55 55 NNW 10 17 30.37 1028 10 16 N/A
9:52 pm 21:52 Partly Cloudy 47 8.3 34 1.1 61 61 NNW 10 17 30.39 1029 10 16 N/A
10:52 pm 22:52 Mostly Cloudy 45 7.2 34 1.1 66 66 N 10 17 30.42 1030 10 16 N/A
11:52 pm 23:52 Cloudy 43 6.1 33 0.6 68 68 N 8 13 30.44 1031 10 16 N/A

Powered by AerisWeather